Weather History for Langdon, ND

Change the Weather History Date:

Sunday, July 21, 2013

  Actual Average (KDVL) Record (KDVL)
Temperature  
Mean Temperature 58 °F -  
Max Temperature 73 °F 81 °F 100 °F (1955)
Min Temperature 44 °F 57 °F 45 °F (1992)
Degree Days  
Heating Degree Days 6    
Growing Degree Days 8 (Base 50)    
Moisture  
Dew Point 44 °F    
Average Humidity 56    
Maximum Humidity 60    
Minimum Humidity 52    
Precipitation  
Precipitation 0.05 in - - ()
Sea Level Pressure  
Sea Level Pressure 29.83 in    
Wind  
Wind Speed 7 mph (SSE)    
Max Wind Speed 17 mph    
Max Gust Speed 30 mph    
Visibility 10 miles    
Events Rain , Thunderstorm    
Averages and records for this station are not official NWS values.
T = Trace of Precipitation, MM = Missing Value Source: NWS Daily Summary

Daily Weather History Graph

Daily Weather History Graph

Search for Another Location

Airport:

Trip Planner

Search our weather history database for the weather conditions in past years. The results will help you decide how hot, cold, wet, or windy it might be!

Date:

Astronomy

Jul. 21, 2013 Rise Set
Actual Time 5:53 AM CDT 9:25 PM CDT
Civil Twilight 5:14 AM CDT 10:04 PM CDT
Nautical Twilight 4:21 AM CDT 10:56 PM CDT
Astronomical Twilight 3:09 AM CDT 12:07 AM CDT
Moon 8:20 PM CDT (7/21) 4:43 AM CDT (7/21)
Length of Visible Light 16h 50m
Length of Day
15h 31m
Waxing Gibbous, 98% of the Moon is Illuminated
Jul 21
Waxing Gibbous
Jul 22
Full
Jul 29
Last Quarter
Aug 6
New
Aug 14
First Quarter

Hourly Weather History & Observations

Time (CDT) Temp. Windchill Dew Point Humidity Pressure Visibility Wind Dir Wind Speed Gust Speed Precip Events Conditions
12:15 AM 48.2 °F - 32.0 °F 54% 30.01 in 10.0 mi East 4.6 mph - N/A   Clear
12:35 AM 48.2 °F - 32.0 °F 54% 30.00 in 10.0 mi East 5.8 mph - N/A   Clear
12:55 AM 46.4 °F 43.5 °F 32.0 °F 57% 29.99 in 10.0 mi East 5.8 mph - N/A   Clear
1:15 AM 46.4 °F 42.9 °F 32.0 °F 57% 29.99 in 10.0 mi East 6.9 mph - N/A   Clear
1:35 AM 48.2 °F - 32.0 °F 54% 29.98 in 10.0 mi East 5.8 mph - N/A   Clear
1:55 AM 48.2 °F - 32.0 °F 54% 29.98 in 10.0 mi East 5.8 mph - N/A   Clear
2:15 AM 48.2 °F - 32.0 °F 54% 29.99 in 10.0 mi ESE 5.8 mph - N/A   Clear
2:35 AM 46.4 °F 43.5 °F 32.0 °F 57% 29.99 in 10.0 mi East 5.8 mph - N/A   Clear
2:55 AM 46.4 °F 44.3 °F 32.0 °F 57% 29.99 in 10.0 mi ESE 4.6 mph - N/A   Clear
3:15 AM 46.4 °F 45.2 °F 32.0 °F 57% 29.99 in 10.0 mi East 3.5 mph - N/A   Clear
3:35 AM 46.4 °F 45.2 °F 32.0 °F 57% 29.98 in 10.0 mi ESE 3.5 mph - N/A   Clear
3:55 AM 44.6 °F 42.2 °F 30.2 °F 57% 29.97 in 10.0 mi ESE 4.6 mph - N/A   Clear
4:15 AM 44.6 °F 43.1 °F 30.2 °F 57% 29.97 in 10.0 mi East 3.5 mph - N/A   Clear
4:35 AM 46.4 °F 45.2 °F 32.0 °F 57% 29.97 in 10.0 mi East 3.5 mph - N/A   Clear
4:55 AM 46.4 °F 44.3 °F 32.0 °F 57% 29.96 in 10.0 mi East 4.6 mph - N/A   Clear
5:15 AM 44.6 °F 42.2 °F 30.2 °F 57% 29.96 in 10.0 mi East 4.6 mph - N/A   Clear
5:35 AM 44.6 °F 41.4 °F 30.2 °F 57% 29.96 in 10.0 mi ESE 5.8 mph - N/A   Clear
5:55 AM 44.6 °F 42.2 °F 28.4 °F 53% 29.95 in 10.0 mi East 4.6 mph - N/A   Partly Cloudy
6:15 AM 44.6 °F 41.4 °F 30.2 °F 57% 29.95 in 10.0 mi ESE 5.8 mph - N/A   Partly Cloudy
6:35 AM 46.4 °F 43.5 °F 32.0 °F 57% 29.95 in 10.0 mi ESE 5.8 mph - N/A   Clear
6:55 AM 48.2 °F - 32.0 °F 54% 29.95 in 10.0 mi East 4.6 mph - N/A   Clear
7:15 AM 50.0 °F - 35.6 °F 58% 29.94 in 10.0 mi ESE 3.5 mph - N/A   Clear
7:35 AM 51.8 °F - 35.6 °F 54% 29.94 in 10.0 mi Calm Calm - N/A   Partly Cloudy
7:55 AM 53.6 °F - 37.4 °F 54% 29.94 in 10.0 mi Calm Calm - N/A   Clear
8:15 AM 55.4 °F - 39.2 °F 54% 29.94 in 10.0 mi SE 4.6 mph - N/A   Partly Cloudy
8:35 AM 55.4 °F - 39.2 °F 54% 29.93 in 10.0 mi SE 4.6 mph - N/A   Scattered Clouds
8:55 AM 57.2 °F - 41.0 °F 55% 29.93 in 10.0 mi SE 5.8 mph - N/A   Partly Cloudy
9:15 AM 59.0 °F - 44.6 °F 59% 29.93 in 10.0 mi SSE 6.9 mph - N/A   Clear
9:35 AM 62.6 °F - 46.4 °F 55% 29.92 in 10.0 mi South 9.2 mph - N/A   Clear
9:55 AM 62.6 °F - 46.4 °F 55% 29.90 in 10.0 mi South 9.2 mph - N/A   Clear
10:15 AM 64.4 °F - 46.4 °F 52% 29.90 in 10.0 mi South 8.1 mph - N/A   Clear
10:35 AM 64.4 °F - 48.2 °F 56% 29.89 in 10.0 mi South 8.1 mph - N/A   Clear
10:55 AM 66.2 °F - 50.0 °F 56% 29.89 in 10.0 mi South 8.1 mph - N/A   Clear
11:15 AM 66.2 °F - 50.0 °F 56% 29.88 in 10.0 mi South 5.8 mph - N/A   Clear
11:35 AM 66.2 °F - 50.0 °F 56% 29.88 in 10.0 mi SSE 5.8 mph - N/A   Clear
11:55 AM 66.2 °F - 50.0 °F 56% 29.87 in 10.0 mi SSE 6.9 mph - N/A   Clear
12:15 PM 68.0 °F - 51.8 °F 56% 29.86 in 10.0 mi South 9.2 mph - N/A   Clear
1:15 PM 71.6 °F - 53.6 °F 53% 29.84 in 10.0 mi SSE 10.4 mph 16.1 mph N/A   Clear
1:35 PM 71.6 °F - 53.6 °F 53% 29.82 in 10.0 mi South 12.7 mph 17.3 mph N/A   Clear
1:55 PM 71.6 °F - 53.6 °F 53% 29.82 in 10.0 mi South 9.2 mph - N/A   Clear
2:15 PM 71.6 °F - 55.4 °F 57% 29.80 in 10.0 mi South 12.7 mph - N/A   Clear
2:35 PM 71.6 °F - 55.4 °F 57% 29.79 in 10.0 mi South 12.7 mph 19.6 mph N/A   Clear
2:55 PM 71.6 °F - 55.4 °F 57% 29.78 in 10.0 mi SSE 12.7 mph - N/A   Clear
3:15 PM 71.6 °F - 55.4 °F 57% 29.77 in 10.0 mi South 11.5 mph 19.6 mph N/A   Scattered Clouds
3:35 PM 73.4 °F - 55.4 °F 53% 29.76 in 10.0 mi South 13.8 mph - N/A   Partly Cloudy
3:55 PM 71.6 °F - 55.4 °F 57% 29.76 in 10.0 mi South 15.0 mph 19.6 mph N/A   Clear
4:15 PM 71.6 °F - 55.4 °F 57% 29.76 in 10.0 mi South 12.7 mph - N/A   Partly Cloudy
4:35 PM 71.6 °F - 53.6 °F 53% 29.75 in 10.0 mi South 9.2 mph 19.6 mph N/A   Scattered Clouds
4:55 PM 69.8 °F - 53.6 °F 56% 29.75 in 10.0 mi South 9.2 mph - N/A   Mostly Cloudy
5:15 PM 68.0 °F - 53.6 °F 60% 29.76 in 5.0 mi NE 4.6 mph - N/A Rain Light Rain
5:35 PM 66.2 °F - 50.0 °F 56% 29.71 in 7.0 mi SE 10.4 mph - 0.01 in Rain Light Rain
5:55 PM 68.0 °F - 50.0 °F 52% 29.70 in 10.0 mi SE 12.7 mph - 0.01 in Rain Light Rain
6:15 PM 66.2 °F - 50.0 °F 56% 29.68 in 10.0 mi SE 12.7 mph - N/A   Overcast
6:35 PM 66.2 °F - 50.0 °F 56% 29.64 in 8.0 mi SSE 16.1 mph 26.5 mph N/A Rain Light Rain
6:55 PM 68.0 °F - 50.0 °F 52% 29.65 in 10.0 mi South 17.3 mph 24.2 mph N/A   Mostly Cloudy
7:15 PM 68.0 °F - 51.8 °F 56% 29.65 in 10.0 mi SSE 17.3 mph 24.2 mph N/A   Mostly Cloudy
7:35 PM 68.0 °F - 51.8 °F 56% 29.64 in 10.0 mi SSE 15.0 mph 21.9 mph N/A   Mostly Cloudy
7:55 PM 68.0 °F - 51.8 °F 56% 29.64 in 10.0 mi SSE 17.3 mph - N/A   Mostly Cloudy
8:15 PM 68.0 °F - 53.6 °F 60% 29.63 in 10.0 mi South 15.0 mph - N/A   Partly Cloudy
8:35 PM 68.0 °F - 51.8 °F 56% 29.64 in 9.0 mi South 13.8 mph 21.9 mph N/A Thunderstorm Mostly Cloudy
8:55 PM 66.2 °F - 50.0 °F 56% 29.63 in 3.0 mi SSW 16.1 mph 19.6 mph 0.02 in Rain , Thunderstorm Light Thunderstorms and Rain
9:15 PM 66.2 °F - 50.0 °F 56% 29.64 in 5.0 mi SSW 17.3 mph 21.9 mph N/A Rain , Thunderstorm Light Rain
9:35 PM 66.2 °F - 50.0 °F 56% 29.65 in 9.0 mi SSW 17.3 mph 28.8 mph N/A Rain , Thunderstorm Light Thunderstorms and Rain
9:55 PM 64.4 °F - 48.2 °F 56% 29.65 in 10.0 mi SSW 17.3 mph 29.9 mph 0.02 in Thunderstorm Mostly Cloudy
10:15 PM 64.4 °F - 46.4 °F 52% 29.64 in 10.0 mi South 9.2 mph - N/A Thunderstorm Mostly Cloudy
10:35 PM 62.6 °F - 46.4 °F 55% 29.63 in 10.0 mi SSW 4.6 mph - N/A   Clear
10:55 PM 62.6 °F - 46.4 °F 55% 29.63 in 10.0 mi SSE 5.8 mph - N/A   Clear
11:15 PM 62.6 °F - 46.4 °F 55% 29.64 in 10.0 mi South 6.9 mph - N/A   Scattered Clouds
11:35 PM 59.0 °F - 44.6 °F 59% 29.65 in 10.0 mi SW 6.9 mph - N/A   Partly Cloudy
11:55 PM 59.0 °F - 44.6 °F 59% 29.65 in 10.0 mi WSW 5.8 mph - N/A   Partly Cloudy